SCOUT B R/B, 2206

Orbit data source: Space-Track

SCOUT B R/B, 2206 is space debris in LEO originally from a launch on Fri, 10 Jun 1966 UTC launched from the Wallops Island (WLPIS). Debris objects in space refer to the collection of defunct objects orbiting the Earth. Examples of debris include non-operational satellites, rocket bodies, and fragments generated from explosions, collisions, or faulty payload assembly.

Loading next visibility...
Identifier
2206, 1966-052B
Orbit
LEO
Country
Flag of USUS
Related business
Manufacturer
UTC
Mission
Spacecraft
Bus & Motor
FW4, Unknown motor
Mass
47 kg wet, 47 kg dry
Launch date (UTC)
1966-06-10 (60 years ago)
Launch vehicle
Unknown
Launch site
Wallops Island (WLPIS)
Object type
Payload
Rocket body
Debris
Shape & HBR
Unknown
Radar Cross Section
Medium (>0.1 m² and <1 m²)

Expand to show TLE details & history
Last TLE update: 15 hours ago

TLE from 15 hours ago
0 SCOUT B R/B
1  2206U 66052B   26177.89727170 -.00000058  00000-0 -95179-5 0  9994
2  2206  40.8612  14.3347 2211635  45.2679 330.8106 10.14639778203763
Epoch: 2026-06-26T21:32Z
TLE epoch observation values (Epoch: 2026-06-26T21:32:04.274Z)
Latitude
-0.00002°
Longitude
136.29768°
Altitude
1,037.663 km
Speed
7.956 km/s
True Right ascension
00h 57m 20s
True Declination
0° 00' 00"
Sunlit
Object was in daylight at epoch
Visualization orbit readout
Latitude
Unknown
Longitude
Unknown
Altitude
Unknown
Speed
Unknown
Apparent Right ascension
Unknown
Apparent Declination
Unknown
Sunlit
N/A
Visualization observer readout
Local Sidereal Time
23:59:31
Azimuth
Unknown
Elevation
Unknown
Doppler factor
Unknown
Orbital elements
Apogee altitude
4,630.297 km
Perigee altitude
642.848 km
Semi-major axis
9,014.709 km
Eccentricity
0.22116
Inclination
40.8612°
RAAN
14.3347°
Arg. of periapsis
45.2679°
True anomaly
314.80115°
Mean anomaly
330.8106°
Eccentric anomaly
323.22422°
Mean motion
2.5358 °/min
Orbital period
141.97 mins
BSTAR
-0.0000095179
Loading maneuver chart data...
Computing Atmospheric mass density...
Loading historical data...
Loading historical data...
Loading historical data...
Loading historical data...
Loading historical data...
Loading historical data...
Loading historical data...
Other satellites on launch #52 in the year 1966 (1966-06-10 UTC)

Documentation

Showing up to 5 results
|